Tracking 18843 objects as of 21-November-2017
HD Live streaming from Space Station
objects crossing your sky now

FENGYUN 1C DEB

Track FENGYUN 1C DEB now!
10-day predictions


NORAD ID: 30558
Int'l Code: 1999-025AKY
Perigee: 852.9 km
Apogee: 1,531.7 km
Inclination: 99.4 °
Period: 109.1 minutes
Semi major axis: 7563 km
RCS: 0.0146 m2 (small)
Launch date: May 10, 1999
Source: People's Republic of China (PRC)
Launch site: Taiyaun Space Center, China (TSC)

Note: This is SATELLITE DEBRIS
aabbcc
Your satellite tracking list
Your tracking list is empty




NASA's NSSDC Master Catalog

Two Line Element Set (TLE):
1 30558U 99025AKY 17321.01781458 +.00000764 +00000-0 +11769-2 0  9997
2 30558 099.4490 327.3882 0448755 126.7793 263.7918 13.19879871517956
Source of the keplerian elements: AFSPC